Weather reports worldwide

Advertisment
Rimini, Italy (16149): temperature & dewpoint: 16.01.2019 04:00:00 - 22.01.2019 04:00:00 (CET)Rimini, Italy (16149): wind speed: 16.01.2019 04:00:00 - 22.01.2019 04:00:00 (CET)Rimini, Italy (16149): wind direction: 16.01.2019 04:00:00 - 22.01.2019 04:00:00 (CET)Rimini, Italy (16149): reduced air pressure: 16.01.2019 04:00:00 - 22.01.2019 04:00:00 (CET)Rimini, Italy (16149): visibility: 16.01.2019 04:00:00 - 22.01.2019 04:00:00 (CET)Rimini, Italy (16149): precipitation: 16.01.2019 04:00:00 - 22.01.2019 04:00:00 (CET)
Date & Time tt [°C] td [°C] ff [km/h] ff [kn] dd ppp [hPa] vv [km] rr [mm]
22.01.2019 04:00:00 2,3 1,1 16 9 W 1011,8 3,6 0,0
22.01.2019 03:00:00 2,0 1,0 16 9 W - 2,8 -
22.01.2019 02:00:00 2,0 1,0 18 10 W - 3,5 -
22.01.2019 01:00:00 2,6 1,0 21 11 W 1014,1 4,6 -
22.01.2019 00:00:00 3,0 1,0 22 12 W - 5 -
21.01.2019 23:00:00 3,0 2,0 16 9 W - 5 -
21.01.2019 22:00:00 3,3 1,6 16 9 W 1014,8 5 0,0
21.01.2019 21:00:00 3,0 2,0 18 10 W - 6 -
21.01.2019 20:00:00 3,0 2,0 15 8 W - 5 -
21.01.2019 19:00:00 3,0 1,4 16 9 W 1015,2 5 -
21.01.2019 18:00:00 3,0 1,0 18 10 W - 4,0 -
21.01.2019 17:00:00 3,0 1,0 22 12 W - 3,0 -
21.01.2019 16:00:00 3,1 1,7 18 10 W 1015,8 3,0 0,0
21.01.2019 15:00:00 3,0 2,0 21 11 W - 3,5 -
21.01.2019 14:00:00 4,0 2,0 21 11 W - 3,5 -
21.01.2019 13:00:00 3,9 1,3 22 12 W 1016,4 7 -
21.01.2019 12:00:00 4,0 1,0 22 12 W - 7 -
21.01.2019 11:00:00 3,0 1,0 16 9 W - 7 -
21.01.2019 10:00:00 3,6 0,2 21 11 W 1017,1 10 0,0
21.01.2019 09:00:00 3,0 1,0 15 8 W - 10 -
21.01.2019 08:00:00 3,0 0,0 15 8 W - 10 -
21.01.2019 07:00:00 2,8 0,7 15 8 W 1016,3 10 -
21.01.2019 06:00:00 2,0 1,0 21 11 WSW - 9 -
21.01.2019 05:00:00 2,0 1,0 18 10 WSW - 7 -
21.01.2019 04:00:00 2,8 0,9 18 10 W 1016,4 10 0,0
21.01.2019 03:00:00 3,0 1,0 13 7 W - 10 -
21.01.2019 02:00:00 4,0 0,0 13 7 W - 10 -
21.01.2019 01:00:00 4,2 -0,2 13 7 W 1016,6 10 -
21.01.2019 00:00:00 5,0 0,0 18 10 W - 10 -
20.01.2019 23:00:00 5,0 1,0 13 7 W - 10 -
20.01.2019 22:00:00 4,6 0,7 9 5 W 1016,2 10 0,0
20.01.2019 21:00:00 5,0 1,0 9 5 W - 10 -
20.01.2019 20:00:00 5,0 1,0 9 5 W - 10 -
20.01.2019 19:00:00 4,8 1,6 8 4 WSW 1015,6 10 -
20.01.2019 18:00:00 6,0 2,0 9 5 W - 10 -
20.01.2019 17:00:00 6,0 1,0 9 5 NW - 10 -
20.01.2019 16:00:00 6,2 0,9 9 5 NW 1015,1 10 0,0
20.01.2019 15:00:00 6,0 1,0 9 5 NW - 10 -
20.01.2019 14:00:00 6,0 0,0 9 5 NW - 10 -
20.01.2019 13:00:00 6,1 0,0 9 5 NNW 1015,5 10 -
20.01.2019 12:00:00 6,0 -1,0 5 3 W - 10 -
20.01.2019 11:00:00 6,0 0,0 9 5 WNW - 10 -
20.01.2019 10:00:00 5,0 0,5 8 4 W 1015,7 10 0,0
20.01.2019 09:00:00 4,0 1,0 8 4 W - 10 -
20.01.2019 08:00:00 4,0 1,0 8 4 WNW - 10 -
20.01.2019 07:00:00 3,8 0,8 8 4 W 1014,7 10 -
20.01.2019 06:00:00 4,0 1,0 11 6 W - 10 -
20.01.2019 05:00:00 4,0 2,0 9 5 W - 10 -
20.01.2019 04:00:00 4,2 1,5 8 4 W 1014,9 10 0,0
20.01.2019 03:00:00 4,0 2,0 9 5 W - 10 -
20.01.2019 02:00:00 4,0 2,0 9 5 W - 10 -
20.01.2019 01:00:00 4,4 1,9 11 6 W 1015,2 10 -
20.01.2019 00:00:00 5,0 2,0 13 7 W - 10 -
19.01.2019 23:00:00 5,0 2,0 13 7 W - 10 -
19.01.2019 22:00:00 4,8 2,3 11 6 W 1015,6 10 0,0
19.01.2019 21:00:00 5,0 2,0 9 5 W - 10 -
19.01.2019 20:00:00 5,0 2,0 11 6 W - 10 -
19.01.2019 19:00:00 4,7 2,5 15 8 W 1015,2 10 -
19.01.2019 18:00:00 5,0 3,0 13 7 W - 10 -
19.01.2019 17:00:00 5,0 3,0 11 6 W - 10 -
19.01.2019 16:00:00 5,0 3,0 13 7 W 1015,3 10 0,0
19.01.2019 15:00:00 5,0 3,0 18 10 W - 10 -
19.01.2019 14:00:00 5,0 3,0 21 11 W - 10 -
19.01.2019 13:00:00 5,2 3,3 21 11 W 1015,8 10 -
19.01.2019 12:00:00 5,0 4,0 24 13 W - 10 -
19.01.2019 11:00:00 6,0 5,0 22 12 W - 8 -
19.01.2019 10:00:00 5,5 4,0 21 11 W 1015,9 10 0,0
19.01.2019 09:00:00 5,0 5,0 15 8 W - 7 -
19.01.2019 08:00:00 5,0 5,0 8 4 WSW - 5 -
19.01.2019 07:00:00 4,9 4,7 2 1 - 1014,8 2,4 -
19.01.2019 06:00:00 5,0 5,0 5 3 W - 1,7 -
19.01.2019 05:00:00 5,0 5,0 9 5 W - 0,1 -
19.01.2019 04:00:00 4,7 4,4 5 3 WSW 1015,4 0,2 0,0
19.01.2019 03:00:00 6,0 5,0 5 3 SW - 1,0 -
19.01.2019 02:00:00 5,0 5,0 2 1 - - 0,1 -
19.01.2019 01:00:00 4,8 4,5 2 1 - 1015,5 0,1 -
19.01.2019 00:00:00 6,0 6,0 2 1 W - 0,1 -
18.01.2019 23:00:00 6,0 6,0 2 1 - - 0,4 -
18.01.2019 22:00:00 6,0 5,6 2 1 - 1015,6 0,8 0,0
18.01.2019 21:00:00 6,0 6,0 4 2 - - 0,8 -
18.01.2019 20:00:00 6,0 6,0 4 2 W - 0,8 -
18.01.2019 19:00:00 6,2 5,7 2 1 - 1014,8 0,5 -
18.01.2019 18:00:00 6,0 6,0 2 1 - - 0,8 -
18.01.2019 17:00:00 6,0 6,0 4 2 - - 0,8 -
18.01.2019 16:00:00 6,6 5,8 8 4 NNW 1013,7 1,5 0,0
18.01.2019 15:00:00 7,0 6,0 4 2 - - 1,8 -
18.01.2019 14:00:00 7,0 6,0 4 2 - - 2,0 -
18.01.2019 13:00:00 6,4 5,4 4 2 - 1013,1 2,5 -
18.01.2019 12:00:00 7,0 5,0 5 3 WNW - 3,5 -
18.01.2019 11:00:00 7,0 4,0 5 3 W - 4,0 -
18.01.2019 10:00:00 6,4 4,6 4 2 - 1012,2 3,0 0,0
18.01.2019 09:00:00 5,0 4,0 5 3 WSW - 3,5 -
18.01.2019 08:00:00 5,0 4,0 8 4 WSW - 5 -
18.01.2019 07:00:00 5,2 3,0 5 3 SSW 1010,4 6 -
18.01.2019 06:00:00 6,0 3,0 21 11 W - 8 -
18.01.2019 05:00:00 11,0 4,0 9 5 S - 10 -
18.01.2019 04:00:00 11,0 4,2 18 10 S 1009,2 10 0,0
18.01.2019 03:00:00 11,0 4,0 15 8 S - 10 -
18.01.2019 02:00:00 10,0 5,0 11 6 SSE - 10 -
18.01.2019 01:00:00 9,9 4,9 9 5 SSE 1010,4 10 -
18.01.2019 00:00:00 10,0 5,0 11 6 S - 10 -
17.01.2019 23:00:00 10,0 5,0 13 7 SSE - 10 -
17.01.2019 22:00:00 10,4 5,0 9 5 SSE 1011,7 10 0,0
17.01.2019 21:00:00 10,0 5,0 13 7 SSE - 10 -
17.01.2019 20:00:00 11,0 5,0 13 7 SSE - 10 -
17.01.2019 19:00:00 11,5 4,8 13 7 S 1012,3 10 -
17.01.2019 18:00:00 12,0 5,0 15 8 S - 10 -
17.01.2019 17:00:00 11,0 3,0 8 4 SE - 10 -
17.01.2019 16:00:00 10,9 4,7 9 5 ESE 1013,4 10 0,0
17.01.2019 15:00:00 12,0 5,0 5 3 SSE - 10 -
17.01.2019 14:00:00 12,0 5,0 15 8 S - 10 -
17.01.2019 13:00:00 11,6 5,0 18 10 S 1015,2 10 -
17.01.2019 12:00:00 12,0 4,0 13 7 SSE - 10 -
17.01.2019 11:00:00 11,0 3,0 15 8 S - 10 -
17.01.2019 10:00:00 10,8 2,5 11 6 S 1017,1 10 0,0
17.01.2019 09:00:00 11,0 2,0 11 6 S - 10 -
17.01.2019 08:00:00 9,0 2,0 8 4 SSE - 10 -
17.01.2019 07:00:00 9,3 2,0 18 10 S 1017,1 10 -
17.01.2019 06:00:00 9,0 2,0 15 8 S - 10 -
17.01.2019 05:00:00 10,0 2,0 16 9 S - 10 -
17.01.2019 04:00:00 9,8 2,4 15 8 S 1018,0 10 0,0
17.01.2019 03:00:00 10,0 2,0 16 9 S - 10 -
17.01.2019 02:00:00 11,0 3,0 15 8 S - 10 -
17.01.2019 01:00:00 11,0 2,8 13 7 S 1018,8 10 -
17.01.2019 00:00:00 11,0 3,0 13 7 S - 10 -
16.01.2019 23:00:00 10,0 3,0 11 6 SSE - 10 -
16.01.2019 22:00:00 10,4 3,2 11 6 SSE 1019,7 10 0,0
16.01.2019 21:00:00 9,0 3,0 8 4 S - 10 -
16.01.2019 20:00:00 4,0 0,0 4 2 - - 10 -
16.01.2019 19:00:00 7,3 0,5 4 2 SSE 1019,2 10 -
16.01.2019 18:00:00 9,0 0,0 5 3 S - 10 -
16.01.2019 17:00:00 13,0 1,0 21 11 SSW - 10 -
16.01.2019 16:00:00 14,2 -0,7 22 12 SW 1019,0 10 0,0
16.01.2019 15:00:00 15,0 -3,0 22 12 SW - 10 -
16.01.2019 14:00:00 16,0 -4,0 18 10 WSW - 10 -
16.01.2019 13:00:00 15,9 -3,7 21 11 WSW 1019,4 10 -
16.01.2019 12:00:00 15,0 -2,0 5 3 - - 10 -
16.01.2019 11:00:00 13,0 -1,0 11 6 S - 10 -
16.01.2019 10:00:00 11,3 -0,3 11 6 S 1020,9 10 0,0
16.01.2019 09:00:00 7,0 -1,0 8 4 S - 10 -
16.01.2019 08:00:00 -1,0 -3,0 4 2 - - 10 -
16.01.2019 07:00:00 -0,9 -3,0 5 3 S 1020,2 10 -
16.01.2019 06:00:00 -1,0 -3,0 4 2 - - 10 -
16.01.2019 05:00:00 2,0 -2,0 2 1 - - 10 -
16.01.2019 04:00:00 0,8 -4,2 2 1 - 1019,8 10 0,0

tt = temperature
td = dewpoint
ff = wind speed
dd = wind direction
ppp = reduced air pressure
vv = visibility
rr = precipitation

Next stations